Hourly Weather Akniste

Today, 22 October, Thursday

Time Temperature Precipitation Wind Pressure Humidity
00:00 +8°C° 0.5 mm 3 mps 749 mmHg 93%
01:00 +8°C° 0.5 mm 3 mps 748 mmHg 95%
02:00 +8°C° 0 mm 4 mps 748 mmHg 96%
03:00 +8°C° 1.3 mm 4 mps 747 mmHg 95%
04:00 +8°C° 1.3 mm 4 mps 746 mmHg 94%
05:00 +8°C° 1.3 mm 4 mps 746 mmHg 93%
06:00 +8°C° 0.2 mm 4 mps 745 mmHg 92%
07:00 +8°C° 0.2 mm 5 mps 745 mmHg 91%
08:00 +8°C° 0.2 mm 5 mps 745 mmHg 89%
09:00 +9°C° 0 mm 5 mps 744 mmHg 88%
10:00 +9°C° 0 mm 5 mps 744 mmHg 86%
11:00 +10°C° 0 mm 5 mps 744 mmHg 84%
12:00 +10°C° 0.1 mm 6 mps 744 mmHg 84%
13:00 +11°C° 0.1 mm 6 mps 744 mmHg 84%
14:00 +11°C° 0.1 mm 7 mps 743 mmHg 85%
15:00 +11°C° 0.2 mm 7 mps 743 mmHg 84%
16:00 +12°C° 0.2 mm 8 mps 743 mmHg 83%
17:00 +12°C° 0.2 mm 8 mps 743 mmHg 82%
18:00 +12°C° 0 mm 8 mps 744 mmHg 82%
19:00 +12°C° 0 mm 7 mps 744 mmHg 83%
20:00 +12°C° 0 mm 7 mps 745 mmHg 84%
21:00 +12°C° 0 mm 7 mps 745 mmHg 84%
22:00 +13°C° 0 mm 6 mps 746 mmHg 85%
23:00 +13°C° 0 mm 6 mps 746 mmHg 85%

Tomorrow, 23 October, Friday

Time Temperature Precipitation Wind Pressure Humidity
00:00 +11°C° 0 mm 6 mps 746 mmHg 84%
01:00 +11°C° 0 mm 6 mps 747 mmHg 82%
02:00 +12°C° 0 mm 5 mps 747 mmHg 81%
03:00 +10°C° 0 mm 5 mps 747 mmHg 85%
04:00 +10°C° 0 mm 5 mps 746 mmHg 89%
05:00 +10°C° 0 mm 4 mps 746 mmHg 93%
06:00 +11°C° 0.8 mm 4 mps 746 mmHg 93%
07:00 +11°C° 0.8 mm 4 mps 745 mmHg 93%
08:00 +11°C° 0.8 mm 4 mps 745 mmHg 93%
09:00 +10°C° 1.2 mm 5 mps 745 mmHg 93%
10:00 +10°C° 1.2 mm 5 mps 745 mmHg 92%
11:00 +12°C° 1.2 mm 5 mps 744 mmHg 91%
12:00 +12°C° 0.2 mm 5 mps 744 mmHg 85%
13:00 +13°C° 0.2 mm 6 mps 744 mmHg 80%
14:00 +13°C° 0.2 mm 6 mps 744 mmHg 74%
15:00 +13°C° 0.1 mm 6 mps 744 mmHg 76%
16:00 +12°C° 0.1 mm 5 mps 744 mmHg 79%
17:00 +10°C° 0.1 mm 5 mps 745 mmHg 82%
18:00 +10°C° 0 mm 4 mps 745 mmHg 84%
19:00 +10°C° 0 mm 4 mps 745 mmHg 87%
20:00 +8°C° 0 mm 4 mps 746 mmHg 89%
21:00 +8°C° 0 mm 4 mps 746 mmHg 90%
22:00 +9°C° 0 mm 3 mps 746 mmHg 92%
23:00 +8°C° 0 mm 3 mps 747 mmHg 93%

Day after tomorrow, 24 October, Saturday

Time Temperature Precipitation Wind Pressure Humidity
00:00 +8°C° 0 mm 3 mps 747 mmHg 94%
01:00 +8°C° 0 mm 3 mps 747 mmHg 94%
02:00 +8°C° 0 mm 3 mps 747 mmHg 95%
03:00 +7°C° 0 mm 3 mps 747 mmHg 94%
04:00 +7°C° 0 mm 3 mps 747 mmHg 94%
05:00 +7°C° 0 mm 3 mps 747 mmHg 94%
06:00 +6°C° 0 mm 2 mps 748 mmHg 94%
07:00 +6°C° 0 mm 2 mps 748 mmHg 95%
08:00 +6°C° 0 mm 2 mps 748 mmHg 95%
09:00 +7°C° 0 mm 2 mps 748 mmHg 92%
10:00 +8°C° 0 mm 2 mps 748 mmHg 89%
11:00 +9°C° 0 mm 2 mps 748 mmHg 85%
12:00 +10°C° 0 mm 3 mps 748 mmHg 84%
13:00 +10°C° 0 mm 3 mps 748 mmHg 83%
14:00 +11°C° 0 mm 3 mps 748 mmHg 81%
15:00 +10°C° 0.1 mm 3 mps 747 mmHg 84%
16:00 +10°C° 0.1 mm 3 mps 747 mmHg 87%
17:00 +9°C° 0.1 mm 3 mps 747 mmHg 89%
18:00 +9°C° 0.4 mm 3 mps 747 mmHg 91%
19:00 +10°C° 0.4 mm 4 mps 747 mmHg 93%
20:00 +10°C° 0.4 mm 4 mps 747 mmHg 94%
21:00 +8°C° 0 mm 4 mps 747 mmHg 94%
22:00 +8°C° 0 mm 4 mps 748 mmHg 93%
23:00 +8°C° 0 mm 4 mps 748 mmHg 92%

, 25 October, Sunday

Time Temperature Precipitation Wind Pressure Humidity
00:00 +8°C° 0 mm 3 mps 749 mmHg 94%
01:00 +8°C° 0 mm 3 mps 749 mmHg 95%
02:00 +7°C° 0 mm 2 mps 750 mmHg 96%
03:00 +7°C° 0 mm 2 mps 750 mmHg 96%
04:00 +7°C° 0 mm 2 mps 750 mmHg 96%
05:00 +7°C° 0 mm 2 mps 751 mmHg 97%
06:00 +7°C° 0 mm 2 mps 751 mmHg 97%
07:00 +7°C° 0 mm 2 mps 751 mmHg 98%
08:00 +6°C° 0 mm 2 mps 752 mmHg 98%
09:00 +7°C° 0 mm 2 mps 752 mmHg 96%
10:00 +8°C° 0 mm 2 mps 752 mmHg 94%
11:00 +9°C° 0 mm 2 mps 753 mmHg 92%
12:00 +10°C° 0 mm 2 mps 753 mmHg 91%
13:00 +10°C° 0 mm 2 mps 753 mmHg 90%
14:00 +10°C° 0 mm 2 mps 753 mmHg 88%
15:00 +10°C° 0 mm 2 mps 753 mmHg 90%
16:00 +10°C° 0 mm 2 mps 753 mmHg 91%
17:00 +9°C° 0 mm 2 mps 753 mmHg 93%
18:00 +9°C° 0 mm 2 mps 754 mmHg 93%
19:00 +8°C° 0 mm 2 mps 754 mmHg 94%
20:00 +8°C° 0 mm 2 mps 754 mmHg 94%
21:00 +7°C° 0 mm 2 mps 754 mmHg 94%
22:00 +7°C° 0 mm 2 mps 755 mmHg 95%
23:00 +7°C° 0 mm 2 mps 755 mmHg 95%

25 October, Sunday

Time Temperature Precipitation Wind Pressure Humidity
00:00 +8°C° 0 mm 3 mps 749 mmHg 94%
01:00 +8°C° 0 mm 3 mps 749 mmHg 95%
02:00 +7°C° 0 mm 2 mps 750 mmHg 96%
03:00 +7°C° 0 mm 2 mps 750 mmHg 96%
04:00 +7°C° 0 mm 2 mps 750 mmHg 96%
05:00 +7°C° 0 mm 2 mps 751 mmHg 97%
06:00 +7°C° 0 mm 2 mps 751 mmHg 97%
07:00 +7°C° 0 mm 2 mps 751 mmHg 98%
08:00 +6°C° 0 mm 2 mps 752 mmHg 98%
09:00 +7°C° 0 mm 2 mps 752 mmHg 96%
10:00 +8°C° 0 mm 2 mps 752 mmHg 94%
11:00 +9°C° 0 mm 2 mps 753 mmHg 92%
12:00 +10°C° 0 mm 2 mps 753 mmHg 91%
13:00 +10°C° 0 mm 2 mps 753 mmHg 90%
14:00 +10°C° 0 mm 2 mps 753 mmHg 88%
15:00 +10°C° 0 mm 2 mps 753 mmHg 90%
16:00 +10°C° 0 mm 2 mps 753 mmHg 91%
17:00 +9°C° 0 mm 2 mps 753 mmHg 93%
18:00 +9°C° 0 mm 2 mps 754 mmHg 93%
19:00 +8°C° 0 mm 2 mps 754 mmHg 94%
20:00 +8°C° 0 mm 2 mps 754 mmHg 94%
21:00 +7°C° 0 mm 2 mps 754 mmHg 94%
22:00 +7°C° 0 mm 2 mps 755 mmHg 95%
23:00 +7°C° 0 mm 2 mps 755 mmHg 95%

26 October, Monday

Time Temperature Precipitation Wind Pressure Humidity
00:00 +7°C° 0 mm 2 mps 755 mmHg 96%
01:00 +7°C° 0 mm 2 mps 755 mmHg 96%
02:00 +6°C° 0 mm 2 mps 755 mmHg 96%
03:00 +6°C° 0 mm 2 mps 755 mmHg 96%
04:00 +6°C° 0 mm 2 mps 755 mmHg 96%
05:00 +6°C° 0 mm 2 mps 755 mmHg 96%
06:00 +6°C° 0 mm 2 mps 755 mmHg 96%
07:00 +6°C° 0 mm 2 mps 755 mmHg 95%
08:00 +6°C° 0 mm 2 mps 755 mmHg 95%
09:00 +8°C° 0 mm 3 mps 755 mmHg 91%
10:00 +9°C° 0 mm 3 mps 755 mmHg 86%
11:00 +10°C° 0 mm 3 mps 755 mmHg 82%
12:00 +10°C° 0 mm 3 mps 755 mmHg 80%
13:00 +11°C° 0 mm 3 mps 755 mmHg 78%
14:00 +11°C° 0 mm 3 mps 755 mmHg 76%
15:00 +10°C° 0 mm 3 mps 755 mmHg 80%
16:00 +9°C° 0 mm 3 mps 754 mmHg 83%
17:00 +8°C° 0 mm 3 mps 754 mmHg 87%
18:00 +8°C° 0 mm 3 mps 754 mmHg 87%
19:00 +8°C° 0 mm 3 mps 754 mmHg 86%
20:00 +8°C° 0 mm 3 mps 754 mmHg 86%
21:00 +8°C° 0 mm 3 mps 754 mmHg 87%
22:00 +8°C° 0 mm 3 mps 754 mmHg 88%
23:00 +8°C° 0 mm 3 mps 754 mmHg 89%

27 October, Tuesday

Time Temperature Precipitation Wind Pressure Humidity
00:00 +8°C° 0 mm 3 mps 753 mmHg 90%
01:00 +8°C° 0 mm 3 mps 753 mmHg 91%
02:00 +8°C° 0 mm 3 mps 753 mmHg 91%
03:00 +8°C° 0 mm 3 mps 753 mmHg 91%
04:00 +8°C° 0 mm 3 mps 752 mmHg 91%
05:00 +7°C° 0 mm 4 mps 752 mmHg 90%
06:00 +8°C° 0 mm 4 mps 752 mmHg 90%
07:00 +8°C° 0 mm 4 mps 752 mmHg 90%
08:00 +8°C° 0 mm 4 mps 752 mmHg 91%
09:00 +10°C° 0 mm 4 mps 752 mmHg 90%
10:00 +10°C° 0 mm 4 mps 752 mmHg 89%
11:00 +11°C° 0 mm 4 mps 751 mmHg 88%
12:00 +12°C° 0 mm 4 mps 751 mmHg 86%
13:00 +12°C° 0 mm 4 mps 751 mmHg 84%
14:00 +13°C° 0 mm 4 mps 751 mmHg 82%
15:00 +13°C° 0 mm 4 mps 751 mmHg 83%
16:00 +12°C° 0 mm 3 mps 751 mmHg 84%
17:00 +12°C° 0 mm 3 mps 751 mmHg 85%
18:00 +12°C° 0 mm 3 mps 751 mmHg 86%
19:00 +12°C° 0 mm 3 mps 751 mmHg 88%
20:00 +11°C° 0 mm 4 mps 751 mmHg 89%
21:00 +11°C° 0.1 mm 4 mps 751 mmHg 90%
22:00 +11°C° 0.1 mm 4 mps 751 mmHg 91%
23:00 +11°C° 0.1 mm 3 mps 751 mmHg 92%
Show more